www.pogodaiklimat.ru

Погода и климат >> Архив погоды >> Беларусь >> Гомель


АРХИВ ПОГОДЫ в Гомеле

Время (UTC), дата Ветер
(напр.,м/с)
 
Видим.   Явления Облачность Т
(С)
Тd
(С)
f
(%)
Тe
(С)
Тes
(С)
Комфортность P
(гПа)
Po
(гПа)
Тmin
(С)
Tmax
(С)
R
(мм)
R24
(мм)
S
(см)
00 12.09 В 1 17 км 5/0
[Ci fib]
+13.7 +7.6 67 +14 +14 тепло 1027.5 1012.2
03 12.09 штиль 0 16 км 8/0
[Ci]
+11.2 +7.5 78 +11 +11 по сезону 1028.0 1012.5
06 12.09 штиль 0 25 км 8/0
[Ci]
+16.5 +7.3 54 +16 +19 тепло 1027.9 1012.7 +10.8
09 12.09 Ю 2 30 км 8/0
[Ci]
+25.2 +6.3 30 +25 +32 комфорт 1027.0 1012.3
12 12.09 ЮЗ 2 35 км 8/0
[Ci]
+28.1 +4.9 23 +27 +33 жарко 1025.5 1011.0
15 12.09 ЮЗ 1 30 км 6/0
[Ci]
+26.3 +5.7 27 +26 +26 жарко 1024.6 1010.0
18 12.09 штиль 0 13 км 8/0
[Ci]
+18.2 +9.7 58 +18 +18 тепло 1025.1 1010.1 +28.3
21 12.09 штиль 0 11 км 6/0
[Ci]
+13.8 +11.5 86 +13 +13 по сезону 1025.1 1009.8
00 13.09 штиль 0 15 км 3/0
[Ci fib]
+12.0 +8.7 80 +11 +11 по сезону 1024.8 1009.4
03 13.09 штиль 0 10 км 4/0
[Ac trans Ci fib]
+10.2 +8.5 89 +9 +9 по сезону 1024.5 1009.0
06 13.09 штиль 0 17 км 4/0
[Ac trans Ci fib]
+14.2 +9.0 71 +14 +17 тепло 1024.7 1009.4 +10.1
09 13.09 ЮЗ 3 27 км 6/0
[Ac trans Ci]
+24.3 +10.9 43 +26 +32 жарко 1023.3 1008.6
12 13.09 З 4 30 км 8/3 1000 м
[Sc Ac trans Ci]
+25.0 +8.9 36 +26 +28 жарко 1021.6 1007.0
15 13.09 З 3
{10}
27 км 8/3 1000 м
[Sc Ac trans Ci]
+23.1 +10.4 45 +25 +25 комфорт 1020.4 1005.7
18 13.09 ЮЗ 1 21 км 4/0
[Ac trans Ci fib]
+17.4 +9.9 61 +18 +18 тепло 1021.0 1006.0 +25.9
21 13.09 ЮЗ 2 22 км 9/0
[Ac und]
+17.3 +9.7 61 +18 +18 тепло 1019.5 1004.5
00 14.09 З 2 19 км 9/3 1000 м
[Sc Ac trans Ci]
+17.0 +10.3 65 +17 +17 тепло 1018.8 1003.8
03 14.09 СЗ 4-10
{10}
17 км 9/3 1000 м
[Sc Ac trans Ci]
+14.6 +9.4 71 +13 +13 тепло 1020.6 1005.4
06 14.09 СЗ 3
{10}
20 км 9/4 600 м
[Sc Ac trans Ci]
+13.2 +9.4 78 +12 +13 по сезону 1022.4 1007.1 +12.9
09 14.09 СЗ 4
{10}
27 км 8/5 600 м
[Sc Ac trans Ci fib]
+16.4 +7.2 54 +16 +18 тепло 1023.4 1008.3
12 14.09 СЗ 4
{11}
30 км 6/4 1000 м
[Sc Ci fib]
+18.6 +4.3 39 +19 +21 тепло 1023.1 1008.1
15 14.09 СЗ 3
{10}
35 км 3/3 1000 м
[Sc]
+18.0 +3.2 37 +18 +19 тепло 1022.7 1007.7
18 14.09 СЗ 2 30 км 1/1 1500 м
[Sc]
+15.3 +4.7 49 +15 +15 тепло 1023.8 1008.6 +19.0
21 14.09 З 2 23 км ясно +12.4 +5.7 64 +12 +12 по сезону 1024.2 1008.8
00 15.09 З 1 18 км 6/0
[Ci fib]
+10.0 +5.9 76 +10 +10 по сезону 1024.2 1008.7
03 15.09 ЮЗ 1 15 км 4/0
[Ci fib]
+7.3 +5.5 88 +6 +6 прохладно 1024.2 1008.5
06 15.09 З 1 25 км 6/0
[Ci]
+10.9 +6.7 75 +11 +13 по сезону 1024.0 1008.6 +6.7
09 15.09 З 3 35 км 9/1 1000 м
[Sc Ci]
+15.4 +4.6 48 +15 +20 тепло 1022.4 1007.2
12 15.09 З 3 35 км 9/8 1470 м
[Sc Ci]
+17.1 +5.1 45 +17 +18 по сезону 1019.5 1004.5
15 15.09 ЮЗ 4
{10}
23 км 10/0
[Ac trans Cs]
+17.3 +4.9 44 +17 +17 тепло 1016.6 1001.6
18 15.09 Ю 2 20 км 10/0
[Cs]
+14.6 +5.0 53 +14 +14 тепло 1014.3 999.2 +17.9
21 15.09 ЮЗ 3 20 км 8/0
[Ci]
+13.2 +4.6 56 +12 +12 по сезону 1011.9 996.8
00 16.09 ЮЗ 3 20 км 9/0
[Ac trans Ci]
+13.0 +4.5 56 +12 +12 тепло 1009.8 994.7
03 16.09 ЮЗ 2 20 км в посл. час дождь 10/8 1470 м
[Sc Ac As]
+12.9 +5.8 62 +12 +12 тепло 1008.9 993.8
06 16.09 ЮЗ 4 30 км {ливн. осадки, дождь} 9/5 1000 м
[Sc Ac trans]
+13.6 +8.1 69 +12 +13 тепло 1007.6 992.6 +11.9 0.2
09 16.09 З 4
{11}
30 км 8/4 1000 м
[Sc Ac trans]
+18.6 +7.5 48 +19 +21 тепло 1007.0 992.3
12 16.09 З 5-11
{13}
30 км 6/3 1000 м
[Sc Ac trans Ci]
+20.3 +4.9 36 +21 +23 комфорт 1006.6 992.0
15 16.09 З 4
{12}
30 км 8/1 1000 м
[Sc Ac trans Ci]
+18.5 +5.8 43 +19 +19 тепло 1006.5 991.8
18 16.09 З 2 28 км 6/0
[Ac trans Ci]
+15.3 +5.5 52 +15 +15 тепло 1007.3 992.4 +20.8
21 16.09 З 3 18 км 9/0
[Ac trans Ci]
+13.1 +5.3 59 +12 +12 по сезону 1007.3 992.2
00 17.09 ЮЗ 2 16 км 8/0
[Ac trans Ci]
+10.2 +5.2 71 +9 +9 по сезону 1006.9 991.7
03 17.09 ЮЗ 1 20 км 9/0
[Ac und]
+8.1 +5.1 81 +7 +7 по сезону 1006.7 991.4
06 17.09 З 3 22 км 4/0
[Ci fib]
+9.6 +5.3 75 +7 +9 по сезону 1006.9 991.6 +7.6
09 17.09 З 4 30 км 8/6 1230 м
[Sc Ci]
+15.0 +4.8 50 +14 +16 по сезону 1006.1 991.2
12 17.09 З 5-10
{10}
35 км 6/3 1000 м
[Sc Ci]
+16.1 +3.3 42 +15 +17 по сезону 1005.5 990.6
15 17.09 ЮЗ 3
{12}
35 км 8/0
[Ac trans Ci]
+15.4 +2.2 41 +15 +15 по сезону 1004.7 989.8
18 17.09 ЮЗ 1 30 км 9/0
[Ac trans Ci]
+12.1 +2.8 53 +12 +12 по сезону 1004.4 989.3 +16.8
21 17.09 З 1 9000 м слаб. ливневой дождь 10/9 1170 м
[Cb cap Ac As]
+10.8 +6.3 74 +11 +11 по сезону 1003.2 988.1
00 18.09 Ю 2 10 км в посл. час ливневой дождь 9/9 1300 м
[Sc]
+9.2 +7.8 91 +7 +7 по сезону 1001.0 985.8
03 18.09 ЮЗ 1 9000 м слаб. ливневой дождь 9/9 800 м
[Cb cap]
+8.4 +6.8 90 +8 +8 по сезону 999.1 983.9
06 18.09 ЮЗ 3 7000 м слаб. ливневой дождь 10/10 300 м
[Cb cap]
+7.2 +6.7 97 +4 +4 холодно 999.2 983.9 +7.1 10
09 18.09 З 4 8000 м слаб. ливневой дождь 10/8 360 м
[Cb cap Ac As]
+6.6 +5.8 95 +3 +3 очень
холодно
1000.9 985.6
12 18.09 З 4-10
{11}
35 км в посл. час ливневой дождь 9/4 1000 м
[Sc Ac trans Ci]
+10.5 +5.8 73 +8 +9 очень
холодно
1002.2 987.1
15 18.09 З 4
{10}
30 км {ливн. осадки} 9/5 600 м
[Cb cap Ac trans Ci]
+10.1 +5.6 74 +8 +8 холодно 1004.3 989.1
18 18.09 З 3 10 км в посл. час ливневой дождь 9/6 720 м
[Sc Ac trans Ci]
+7.9 +6.6 91 +5 +5 холодно 1007.5 992.1 +11.5 8
21 18.09 З 3 12 км 8/3 600 м
[Sc Ac trans Ci]
+8.0 +6.4 90 +5 +5 холодно 1010.0 994.6

 

Местоположение метеостанции Гомель (Гомельская область, Беларусь): широта 52.40 долгота 30.96 высота над уровнем моря 126 м.

В архиве по умолчанию представлена погода в Гомеле за последнюю неделю. Архивные данные за месяц целиком и за предыдущие месяцы, начиная с января 2011 года, Вы можете получить, выбрав интересующий диапазон дат из раскрывающегося списка и нажав кнопку "Ввод!".


*Определитесь, кто Вы:
робот инопланетянин человек

Внимание! Время в таблицах - всемирное. Для получения местного времени необходимо прибавить поправку, которая равна 3 ч.

Смотрите также архив погоды в соседних городах и на ближайших метеорологических станциях:

Погода в Василевичах (Гомельская область, Беларусь) (78 км)
Погода в Красной Горе (Брянская область, Россия) (81 км)
Погода в Брагине (Гомельская область, Беларусь) (83 км)
Погода в Жлобине (Гомельская область, Беларусь) (84 км)
Погода в Щорсе (Черниговская область, Украина) (96 км)
Погода в Чернигове (Черниговская область, Украина) (105 км)
Погода в Семеновке (Черниговская область, Украина) (113 км)
Погода в Славгороде (Могилевская область, Беларусь) (117 км)
Погода в Покошичах (Черниговская область, Украина) (123 км)
Погода в Унече (Брянская область, Россия) (125 км)

Пояснения к столбцам:

Ветер - указаны скорость ветра в м/с - средняя за 10 мин, порывы в срок и между сроками (в фигурных скобках) и направление, откуда дует ветер: С - северный, СВ - северо-восточный, В - восточный, ЮВ - юго-восточный, Ю - южный, ЮЗ - юго-западный, З - западный, СЗ - северо-западный.
Видимость - горизонтальная дальность видимости в метрах или километрах. При видимости от 1 до 10 км при отсутствии осадков обычно наблюдается дымка, при ухудшении видимости до 1 км и менее - туман. В сухую погоду видимость может ухудшаться дымом, пылью или мглою.
Явления - указаны атмосферные явления, наблюдавшиеся в срок или в последний час перед сроком; фигурными скобками обозначены явления, наблюдавшиеся между сроками (за 1-3 часа до срока); квадратными скобками обозначены град или гололедные отложения с указанием их диаметра в мм.
Облачность - указаны через наклонную черту общая и нижняя облачность в баллах и высота нижней границы облаков в метрах; квадратными скобками обозначены формы облаков: Ci - перистые, Cs - перисто-слоистые, Cc - перисто-кучевые, Ac - высококучевые, As - высокослоистые, Sc - слоисто-кучевые, Ns - слоисто-дождевые, Cu - кучевые, Cb - кучево-дождевые. Подробнее классификацию облаков см. в Атласе облаков (PDF).
T - Температура воздуха - температура, измеренная на высоте 2 м над землей.
Td - Температура точки росы - температура, при понижении до которой содержащийся в воздухе водяной пар достигнет насыщения.
f - Относительная влажность воздуха - влажноcть воздуха, измеренная на высоте 2 м над землей.
Te - Эффективная температура - температура, которую ощущает одетый по сезону человек в тени. Характеристика душности погоды. При расчете учитывается влияние влажности воздуха и скорости ветра на теплоощущения человека.
Tes - Эффективная температура на солнце - температура, которую ощущает человек, с поправкой на солнечный нагрев. Характеристика знойности погоды. Зависит от высоты солнца над горизонтом, облачности и скорости ветра. Ночью, в пасмурную погоду, а также при ветре 12 м/с и более поправка равна нулю.
P - Атмосферное давление - приведенное к уровню моря атмосферное давление.
Po - Атмосферное давление - измеренное на уровне метеостанции атмосферное давление.
Tmin - Минимальная температура - минимум температуры воздуха на высоте 2 м над землей.
Tmax - Максимальная температура - максимум температуры воздуха на высоте 2 м над землей.
R - Количество осадков - Количество выпавших осадков за период времени, мм. При наведении курсора мыши на число - период времени, за который выпало указанное количество осадков.
R24 - Количество осадков - Количество выпавших осадков за 24 часа, мм.
S - Снежный покров - Высота снежного покрова, см. При наведении курсора мыши на число - состояние снежного покрова и степень покрытия местности в баллах.